Wind_Speed
76 79 79 78 74 71 70 69 69 69 68 70 73 70 57 46 37 30 25 20 16 12 9 7 5 7 13 22 30 37 44 49 52 55 58 60 69 78 85 92 102 111 113
75 78 78 77 73 70 68 68 68 68 67 69 72 71 61 49 40 32 26 22 19 15 13 10 9 10 13 18 25 31 37 43 47 50 55 57 63 72 80 88 97 107 112
75 77 78 76 72 69 67 67 67 67 66 68 70 71 65 54 44 35 29 24 21 19 16 14 13 12 14 17 21 26 32 37 42 45 49 53 58 66 74 83 92 103 110
74 77 77 75 71 68 66 66 66 66 65 66 69 70 68 60 50 40 33 27 23 20 18 16 15 14 15 17 20 23 28 32 37 41 45 48 53 61 70 80 88 99 107
73 76 76 75 71 67 65 64 64 65 65 65 67 69 68 64 56 47 37 30 25 21 18 15 13 13 14 16 18 21 24 29 33 37 40 44 49 57 66 76 84 94 104
72 75 75 74 71 67 64 63 63 64 64 65 66 68 68 65 59 50 41 33 27 22 17 13 10 9 11 13 16 18 21 25 29 33 36 39 45 53 63 72 79 89 99
71 73 74 74 71 66 63 62 62 62 63 63 64 66 67 65 60 52 44 36 29 23 18 13 8 5 5 8 12 15 18 21 25 30 33 36 42 50 60 68 75 84 94
70 72 73 73 70 66 63 61 61 61 61 62 63 64 66 65 61 53 46 39 31 25 19 15 10 5 1 3 7 11 15 19 22 26 29 32 39 48 57 65 71 78 87
69 71 72 72 69 66 62 60 60 60 60 60 61 62 64 65 62 55 48 41 34 27 21 17 13 10 6 4 3 6 10 15 19 23 26 30 37 46 55 62 68 74 80
68 69 71 71 69 65 62 60 59 59 59 59 60 60 61 62 62 57 50 43 35 28 23 20 16 14 11 8 6 4 6 10 15 20 24 29 37 46 54 60 64 69 75
66 68 70 69 68 65 62 60 58 57 58 58 58 58 59 59 60 59 52 43 35 29 24 22 19 17 15 13 10 7 5 6 11 16 22 28 36 45 53 58 62 66 71
65 66 68 69 67 65 61 59 57 56 55 55 55 55 55 56 57 58 54 44 36 29 24 21 19 18 17 15 13 11 8 6 7 13 20 28 36 45 52 56 59 62 66
64 64 66 68 67 65 61 58 56 54 53 52 52 52 52 53 53 54 54 47 37 29 24 21 19 18 17 16 14 13 11 9 7 10 18 27 36 44 50 53 55 57 60
62 63 64 66 67 65 61 58 55 53 51 50 50 50 50 50 51 51 51 50 42 31 24 20 18 17 16 16 15 14 12 11 9 10 16 25 35 42 47 50 51 51 53
61 61 62 64 65 65 63 58 55 53 51 50 49 48 47 48 48 49 49 48 46 38 27 20 17 15 15 15 15 14 13 12 12 13 17 24 33 40 44 47 47 47 47
60 59 60 62 63 64 63 60 55 52 51 50 48 47 46 46 46 46 46 45 45 43 35 23 17 14 12 12 12 13 13 13 14 15 18 24 31 37 41 43 44 43 42
59 58 58 60 61 62 61 58 55 52 50 49 47 45 44 43 43 43 43 42 42 41 39 31 20 14 11 9 10 10 11 13 14 15 18 22 28 33 38 40 40 40 39
58 56 56 57 59 60 60 57 54 50 49 47 46 44 42 41 40 40 40 40 39 38 37 35 28 18 11 8 7 7 9 11 13 15 17 20 24 29 33 37 38 38 38
57 55 54 54 57 58 59 58 54 50 47 45 44 43 41 39 38 37 38 38 37 35 34 34 31 26 17 9 5 4 6 9 11 13 15 17 20 24 28 33 36 37 37
56 53 52 52 54 56 57 57 55 51 46 43 41 40 39 37 36 35 35 35 35 34 32 31 30 28 24 16 8 2 4 7 9 11 13 16 18 21 25 28 32 35 37
54 52 50 49 51 53 55 56 55 51 46 42 40 39 38 36 35 34 33 33 32 31 30 29 28 28 26 21 14 7 1 6 9 11 13 14 16 19 22 25 28 32 36
53 50 48 47 48 51 53 54 54 52 47 42 39 38 37 35 34 33 32 31 30 30 28 27 27 26 26 23 18 12 5 4 10 13 15 15 16 17 19 22 25 29 33
52 49 47 45 45 48 50 52 53 52 48 42 38 36 35 35 33 32 31 30 29 28 27 26 26 26 26 25 21 16 9 5 7 13 17 18 18 18 19 20 23 26 30
50 47 45 43 43 45 48 50 52 51 48 43 38 35 34 33 32 31 30 30 28 27 26 25 25 26 27 27 26 21 15 8 7 11 16 20 22 22 21 21 22 24 28
49 46 43 41 41 42 45 48 50 50 48 43 38 34 32 32 32 31 30 29 28 27 25 25 25 25 27 28 28 27 22 15 8 9 14 20 23 25 25 24 23 24 27
47 44 41 39 38 39 42 45 47 49 47 43 38 33 31 30 30 30 29 29 28 27 25 24 24 24 26 27 29 29 27 23 16 8 10 17 22 26 28 27 26 26 27
Wind_Direction
345 346 346 346 345 346 348 349 351 353 354 356 358 359 358 354 348 342 337 334 334 334 331 325 298 250 229 222 219 219 219 219 221 226 229 225 218 214 211 209 207 203 202
347 347 348 348 347 348 350 351 353 355 356 358 360 1 1 359 354 345 336 327 319 311 302 291 274 252 235 226 222 220 219 219 219 223 228 225 218 213 209 207 207 204 201
348 349 350 349 349 350 352 353 355 357 358 360 1 3 3 2 359 352 344 332 319 308 296 284 271 256 240 230 225 221 220 218 218 221 225 224 218 211 207 205 205 204 201
350 350 351 351 351 351 353 355 357 358 360 1 3 4 4 4 3 360 351 343 331 317 303 290 275 260 245 235 228 222 220 218 217 219 222 222 216 209 205 203 204 204 201
351 351 352 353 352 353 354 356 358 359 1 3 4 6 6 5 4 4 359 352 344 334 321 304 283 264 249 237 228 221 218 216 216 217 219 219 214 207 203 202 202 203 202
351 352 353 354 354 354 355 357 359 1 2 4 6 7 8 7 6 5 4 2 357 350 341 327 304 274 250 235 224 218 215 214 213 213 215 215 210 204 200 199 200 202 202
352 353 354 355 355 355 355 357 360 2 3 4 6 8 9 10 8 8 8 8 6 3 359 354 342 305 256 228 217 213 210 208 208 209 211 211 206 201 198 197 198 201 202
352 353 354 355 356 356 356 357 360 2 4 5 7 9 10 11 11 11 12 13 13 14 15 16 19 18 6 199 203 205 205 203 203 204 207 206 201 197 195 195 196 199 201
352 353 355 356 357 357 357 357 360 2 4 6 8 10 11 12 13 13 15 17 18 21 25 30 37 44 55 81 146 182 192 194 195 198 201 199 195 192 191 192 194 197 199
352 353 355 356 357 357 357 358 359 1 4 6 8 10 12 13 14 15 17 19 21 26 32 38 44 50 56 63 79 122 165 182 189 193 194 192 189 188 187 189 192 194 197
353 353 354 356 357 358 358 359 360 1 3 6 8 9 12 13 15 17 19 20 23 29 36 42 48 53 56 60 64 76 108 158 181 187 187 186 184 183 184 186 189 192 196
352 353 354 356 357 358 358 359 1 2 3 5 6 8 11 13 15 18 20 21 24 30 37 44 49 55 57 59 62 65 74 100 154 176 181 180 179 179 181 184 187 190 194
352 353 354 355 357 358 359 360 1 2 3 4 5 8 11 13 16 19 21 22 24 29 36 43 50 56 59 60 63 68 73 81 110 154 171 174 174 175 178 181 184 187 192
351 352 354 355 356 358 360 0 1 2 3 3 5 7 10 12 15 18 21 23 24 27 32 40 48 55 61 65 69 74 79 87 103 133 157 166 169 172 175 178 181 185 189
349 351 353 354 355 357 359 0 1 1 3 4 5 7 9 12 15 17 20 22 24 26 28 33 42 51 60 67 73 81 88 96 107 126 147 159 164 168 172 176 180 183 187
348 350 352 353 354 356 358 359 0 1 2 4 5 6 8 11 14 16 18 20 23 25 26 28 33 43 56 67 76 85 94 102 112 125 142 156 163 167 170 174 179 182 186
347 349 351 352 354 355 357 359 359 360 1 3 4 6 7 9 12 14 16 18 22 24 25 27 28 35 47 63 78 89 99 109 118 129 142 155 164 168 172 176 180 184 187
345 347 350 351 353 354 356 358 359 359 360 1 3 5 7 9 10 12 14 17 20 22 24 26 28 30 36 52 76 97 110 119 127 135 145 157 167 173 178 182 185 187 189
343 346 348 350 352 353 355 357 358 359 360 0 2 3 5 7 9 11 13 16 18 20 22 25 27 30 31 36 57 106 131 138 142 147 153 161 170 178 185 190 193 194 195
342 344 346 349 350 352 353 355 357 358 359 360 1 2 4 5 7 9 12 14 16 18 21 23 26 28 29 30 32 66 169 170 168 166 168 172 178 184 190 195 199 201 202
340 342 344 347 349 351 352 354 356 358 358 358 360 2 3 4 6 8 10 12 14 17 19 22 24 25 26 25 24 22 245 208 198 191 187 186 188 192 197 202 205 207 208
338 340 342 345 347 349 350 352 354 356 357 357 358 1 3 4 5 7 9 10 12 15 17 19 21 21 21 21 19 13 355 249 220 211 205 202 200 201 202 205 208 210 211
337 338 340 342 345 347 349 351 353 355 356 356 357 359 1 3 5 7 8 9 11 13 15 16 17 17 17 17 15 10 356 307 242 224 217 212 210 209 208 208 208 208 209
335 336 337 340 343 345 347 349 351 353 355 356 356 357 360 2 4 6 7 9 10 11 13 14 15 15 16 16 16 13 4 339 275 237 224 218 215 212 211 210 209 208 207
333 333 335 337 340 342 344 347 349 352 354 354 355 356 358 0 2 5 6 8 9 9 10 11 13 13 14 16 16 16 12 3 330 259 233 223 218 214 212 211 209 208 206
331 331 332 335 337 340 342 344 347 350 352 353 354 354 356 358 1 3 5 7 8 8 8 9 10 11 13 15 15 15 14 11 4 328 250 229 221 216 213 210 209 207 205
Height
5600 5580 5560 5540 5521 5504 5486 5469 5452 5434 5416 5398 5378 5359 5341 5327 5315 5306 5299 5293 5287 5282 5278 5275 5273 5272 5273 5275 5279 5285 5292 5300 5309 5316 5323 5333 5347 5364 5384 5405 5429 5453 5478
5594 5575 5555 5535 5517 5500 5483 5466 5449 5431 5414 5396 5378 5359 5341 5326 5314 5304 5297 5291 5285 5281 5277 5274 5272 5271 5271 5273 5276 5281 5287 5294 5302 5309 5316 5326 5339 5355 5374 5395 5417 5440 5464
5589 5570 5551 5532 5514 5497 5481 5464 5447 5430 5413 5396 5378 5360 5342 5327 5314 5303 5294 5288 5282 5277 5274 5271 5269 5269 5269 5271 5273 5277 5282 5288 5295 5302 5309 5318 5331 5347 5365 5385 5405 5428 5451
5585 5566 5547 5529 5511 5495 5479 5463 5447 5430 5413 5397 5379 5361 5343 5327 5313 5302 5292 5285 5278 5273 5270 5267 5266 5265 5266 5268 5270 5273 5278 5283 5290 5296 5303 5312 5324 5339 5356 5375 5395 5416 5439
5581 5563 5545 5527 5509 5493 5478 5462 5447 5430 5414 5398 5381 5363 5345 5328 5313 5301 5291 5283 5276 5270 5266 5263 5262 5262 5262 5264 5266 5270 5274 5279 5285 5292 5299 5308 5319 5332 5349 5367 5387 5408 5430
5578 5561 5543 5525 5508 5492 5477 5463 5447 5431 5415 5399 5383 5366 5349 5331 5315 5302 5291 5283 5275 5269 5264 5261 5259 5259 5259 5261 5263 5266 5270 5275 5281 5288 5295 5303 5314 5327 5343 5361 5380 5399 5421
5576 5559 5541 5524 5507 5492 5477 5463 5448 5433 5418 5402 5386 5370 5354 5337 5321 5306 5295 5285 5277 5270 5265 5261 5259 5259 5259 5260 5262 5265 5269 5273 5278 5285 5292 5300 5311 5324 5339 5356 5373 5392 5414
5574 5557 5540 5523 5507 5491 5477 5464 5450 5435 5421 5406 5390 5375 5359 5343 5327 5312 5300 5289 5281 5274 5268 5264 5262 5261 5260 5261 5263 5265 5268 5272 5277 5283 5290 5299 5309 5321 5336 5352 5369 5388 5408
5573 5557 5540 5523 5507 5492 5478 5464 5451 5438 5424 5409 5394 5379 5364 5349 5333 5319 5306 5295 5286 5279 5274 5270 5267 5265 5265 5265 5266 5267 5270 5273 5277 5283 5289 5297 5307 5319 5333 5349 5366 5383 5402
5572 5556 5539 5523 5508 5493 5479 5465 5451 5438 5425 5411 5397 5383 5369 5356 5341 5326 5313 5302 5293 5286 5281 5277 5274 5272 5271 5270 5270 5271 5273 5275 5279 5283 5289 5297 5306 5318 5332 5348 5363 5380 5397
5571 5555 5540 5524 5508 5494 5480 5467 5453 5440 5426 5413 5400 5388 5376 5363 5349 5334 5321 5311 5302 5295 5290 5285 5282 5280 5278 5277 5276 5276 5277 5278 5281 5285 5290 5298 5307 5319 5332 5347 5362 5377 5393
5570 5556 5541 5525 5510 5495 5481 5468 5455 5442 5430 5418 5406 5394 5382 5370 5357 5343 5330 5319 5311 5304 5298 5294 5291 5288 5286 5284 5283 5282 5282 5283 5285 5288 5293 5299 5308 5319 5332 5346 5361 5375 5390
5570 5556 5542 5527 5512 5498 5484 5471 5458 5446 5434 5423 5412 5400 5388 5377 5365 5352 5340 5329 5320 5312 5307 5303 5299 5297 5294 5292 5291 5290 5289 5289 5290 5292 5296 5302 5311 5321 5334 5347 5361 5375 5389
5569 5556 5542 5528 5513 5499 5486 5473 5461 5450 5439 5427 5416 5405 5393 5382 5371 5360 5349 5338 5328 5321 5315 5311 5308 5305 5302 5300 5299 5298 5297 5297 5297 5298 5302 5307 5315 5325 5337 5350 5363 5376 5389
5567 5555 5541 5528 5514 5500 5487 5475 5463 5451 5440 5430 5419 5408 5397 5387 5376 5365 5356 5346 5337 5328 5322 5318 5315 5312 5310 5308 5307 5306 5305 5305 5305 5306 5309 5314 5322 5331 5341 5353 5365 5377 5389
5566 5554 5541 5527 5513 5499 5486 5474 5463 5453 5441 5431 5420 5410 5400 5390 5380 5372 5363 5354 5345 5337 5329 5324 5321 5318 5316 5315 5314 5313 5312 5312 5313 5314 5317 5322 5329 5337 5346 5357 5368 5379 5389
5564 5552 5540 5528 5514 5500 5486 5474 5463 5452 5443 5433 5423 5414 5404 5395 5386 5378 5370 5362 5353 5345 5338 5331 5326 5324 5322 5320 5320 5319 5319 5319 5321 5322 5325 5330 5335 5342 5351 5360 5370 5379 5389
5562 5551 5540 5528 5515 5502 5489 5477 5466 5455 5445 5435 5426 5417 5408 5399 5391 5383 5375 5367 5360 5353 5346 5339 5333 5329 5327 5325 5325 5325 5325 5326 5327 5329 5332 5336 5341 5347 5354 5362 5370 5379 5388
5560 5550 5539 5528 5516 5504 5491 5479 5468 5458 5448 5438 5429 5420 5411 5403 5396 5388 5380 5373 5366 5359 5353 5346 5340 5335 5331 5329 5329 5329 5329 5331 5332 5334 5337 5340 5344 5350 5356 5362 5370 5378 5386
5558 5548 5538 5528 5517 5505 5492 5481 5469 5459 5450 5441 5432 5423 5415 5406 5399 5391 5384 5377 5371 5364 5358 5352 5347 5341 5337 5333 5332 5331 5332 5333 5335 5337 5340 5343 5346 5351 5356 5361 5368 5375 5382
5555 5545 5536 5526 5516 5505 5493 5482 5470 5460 5451 5442 5435 5426 5418 5410 5402 5395 5388 5381 5375 5368 5363 5357 5352 5347 5342 5338 5335 5333 5333 5334 5336 5338 5340 5343 5346 5350 5354 5359 5364 5370 5377
5552 5542 5533 5524 5515 5504 5493 5482 5471 5460 5451 5443 5435 5428 5420 5412 5404 5397 5391 5384 5378 5372 5366 5361 5356 5351 5347 5342 5338 5335 5334 5334 5335 5337 5339 5342 5345 5348 5352 5355 5360 5365 5371
5548 5539 5530 5522 5513 5503 5493 5482 5471 5461 5451 5443 5436 5428 5421 5414 5406 5400 5393 5387 5381 5375 5369 5364 5359 5355 5350 5345 5340 5337 5334 5333 5333 5334 5336 5339 5342 5345 5348 5352 5356 5360 5365
5544 5535 5527 5519 5510 5501 5491 5481 5471 5461 5451 5443 5436 5429 5422 5415 5408 5402 5395 5389 5383 5378 5372 5367 5362 5357 5352 5347 5342 5337 5334 5331 5330 5331 5332 5335 5338 5341 5345 5348 5352 5356 5360
5539 5530 5523 5515 5507 5499 5490 5480 5470 5460 5451 5443 5435 5429 5422 5416 5409 5403 5397 5391 5385 5380 5374 5369 5364 5360 5355 5349 5344 5339 5334 5330 5328 5327 5328 5330 5333 5336 5340 5344 5348 5352 5356
5533 5525 5518 5511 5504 5496 5488 5478 5469 5459 5450 5442 5435 5428 5422 5416 5410 5404 5398 5392 5387 5381 5376 5371 5366 5361 5356 5351 5346 5341 5335 5330 5326 5324 5323 5325 5327 5330 5335 5339 5344 5348 5352